Flag for Canada Weather past 2 weeks in Annapolis County, Nova Scotia, Canada

Now
71 °F

Mild.


Feels Like: 77 °F
Forecast: N/A
Wind: 9 mph from Southwest

Location: Kejimkujik 1

Current Time: Jul 2, 2015 at 8:09:20 PM

Latest Report: Jul 2, 2015 at 7:00 PM


Visibility: N/A

Pressure: 29.84 "Hg

Humidity: 55%

Dew point: 54 °F

Location of Annapolis CountyLocation

Historic Weather in Annapolis County — Graph

°F

Annapolis County temperature yesterday

Maximum temperature yesterday: 77 °F (at 2:00 PM)
Minimum temperature yesterday: 54 °F (at 5:00 AM)
Average temperature yesterday: 64 °F

Past Weeks' High & Low Weather Summary

 TemperatureHumidityPressure
High77 °F (Jul 1, 2:00 PM)100% (Jun 21, 10:00 PM)30.22 "Hg (Jun 21, 10:00 PM)
Low43 °F (Jun 20, 6:00 AM)32% (Jun 18, 6:00 PM)29.52 "Hg (Jun 22, 4:00 AM)
Average59 °F79%29.94 "Hg
* Reported Jun 17 7:00 PM — Jul 2 7:00 PM, Annapolis County, Weather by CustomWeather, © 2015

Note: Actual official high and low records may vary slightly from our data, if they occured in-between our weather recording intervals... More about our weather records

Advertising

Annapolis County weather history for previous 24 hours

 ConditionsComfort  
Time TempWeatherWind HumidityBarometerVisibility
7:00 PM
Thu, Jul 2
71 °FMild.9 mph55%29.84 "HgN/A
6:00 PM74 °FMild.8 mph50%29.84 "HgN/A
5:00 PM75 °FMild.9 mph47%29.83 "HgN/A
4:00 PM77 °FMild.13 mph48%29.83 "HgN/A
3:00 PM76 °FMild.8 mph47%29.83 "HgN/A
2:00 PM75 °FMild.8 mph54%29.83 "HgN/A
1:00 PM74 °FMild.8 mph61%29.82 "HgN/A
12:00 PM72 °FMild.8 mph69%29.82 "HgN/A
11:00 AM71 °FMild.10 mph71%29.80 "HgN/A
10:00 AM66 °FMild.7 mph81%29.80 "HgN/A
9:00 AM63 °FMild.6 mph87%29.80 "HgN/A
8:00 AM62 °FMild.5 mph89%29.79 "HgN/A
7:00 AM62 °FCool.6 mph91%29.78 "HgN/A
6:00 AM62 °FCool.7 mph94%29.78 "HgN/A
5:00 AM63 °FMild.7 mph93%29.78 "HgN/A
4:00 AM63 °FMild.7 mph92%29.79 "HgN/A
3:00 AM64 °FMild.6 mph91%29.78 "HgN/A
2:00 AM64 °FMild.6 mph91%29.80 "HgN/A
1:00 AM64 °FMild.6 mph87%29.80 "HgN/A
12:00 AM64 °FMild.6 mph93%29.81 "HgN/A
11:00 PM
Wed, Jul 1
63 °FMild.5 mph93%29.82 "HgN/A
10:00 PM62 °FMild.3 mph93%29.83 "HgN/A
9:00 PM63 °FMild.7 mph92%29.83 "HgN/A
8:00 PM64 °FMild.10 mph87%29.84 "HgN/A
Weather by CustomWeather, © 2015

See weather overviewHow to use our weather pages